User: anonymous   Login
Location: Unspecified
(0.0000°N, 0.0000°E)
Time: 03:16:41
(UTC+00:00)
Language:

Akebono - Orbit

View from above orbital plane
View from above orbital plane
View from above satellite
View from above satellite

Ground track
Ground track

The orbit data is extracted from the following two-line orbital elements,

1 19822U 89016A   19082.97520590  .00008450  89696-6  15598-3 0  9995
2 19822  75.0297 254.7338 1800799 286.9643  54.2379 11.93151862985401
Epoch (UTC): 23 March 2019 23:24:17
Eccentricity: 0.1800799
inclination: 75.0297°
perigee height: 255 km
apogee height: 3168 km
right ascension of ascending node: 254.7338°
argument of perigee: 286.9643°
revolutions per day: 11.93151862
mean anomaly at epoch: 54.2379°
orbit number at epoch: 98540

The dashed part of the orbit path shows where the satellite is in the earth's shadow,  

DLR